Orbital Elements at Epoch 2459000.5 (2020-May-31.0) TDB
Reference: JPL 25 (heliocentric ecliptic J2000)
Element | Value | Uncertainty (1-sigma) | Units |
e | .2198361717000976 | 3.1758e-08 | |
a | 2.595527444495699 | 1.1679e-08 | au |
q | 2.024936627555227 | 8.309e-08 | au |
i | 14.45447582224033 | 4.7055e-06 | deg |
node | 100.8238752940832 | 1.8017e-05 | deg |
peri | 246.0082417213129 | 2.3022e-05 | deg |
M | 271.1571069646584 | 1.6434e-05 | deg |
tp | 2459377.426833796519 (2021-Jun-11.92683380) | 7.0992e-05 | TDB |
period | 1527.344006152163 4.18 | 1.0308e-05 2.822e-08 | d yr |
n | .235703285278179 | 1.5908e-09 | deg/d |
Q | 3.166118261436172 | 1.4246e-08 | au |
|
| | Orbit Determination Parameters
Additional Information
|